TimeMDT,TemperatureF,Dew PointF,Humidity,Sea Level PressureIn,VisibilityMPH,Wind Direction,Wind SpeedMPH,Gust SpeedMPH,PrecipitationIn,Events,Conditions,WindDirDegrees,DateUTC
5:00 AM,41.0,37.4,87,29.98,15.0,Variable,2.3,-,N/A,,Partly Cloudy,0,2013-08-27 11:00:00
6:00 AM,40,35,78,29.99,15,WSW,3.5,,,,Scattered Clouds,240,2013-08-27 12:00:00
6:00 AM,39.2,35.6,87,29.99,15.0,West,3.5,-,N/A,,Partly Cloudy,260,2013-08-27 12:00:00
7:00 AM,39.2,37.4,93,30.01,30.0,WNW,5.8,-,N/A,,Partly Cloudy,290,2013-08-27 13:00:00
8:00 AM,44.6,42.8,93,30.00,30.0,NW,3.5,-,N/A,,Partly Cloudy,310,2013-08-27 14:00:00
9:00 AM,55.4,44.6,67,29.98,30.0,Variable,2.3,-,N/A,,Partly Cloudy,0,2013-08-27 15:00:00
10:00 AM,60.8,44.6,55,29.98,30.0,Calm,Calm,-,N/A,,Partly Cloudy,0,2013-08-27 16:00:00
11:00 AM,68.0,46.4,46,29.96,30.0,West,4.6,-,N/A,,Partly Cloudy,260,2013-08-27 17:00:00
12:00 PM,71,44,27,29.94,28,SSW,2.3,,,,Scattered Clouds,210,2013-08-27 18:00:00
12:00 PM,71.6,44.6,38,29.94,30.0,Calm,Calm,-,N/A,,Partly Cloudy,0,2013-08-27 18:00:00
1:00 PM,71.6,42.8,35,29.93,30.0,Variable,4.6,-,N/A,,Scattered Clouds,0,2013-08-27 19:00:00
2:00 PM,73.4,44.6,36,29.94,30.0,NNW,6.9,-,N/A,,Scattered Clouds,330,2013-08-27 20:00:00
3:00 PM,75.2,42.8,31,29.93,30.0,Calm,Calm,-,N/A,,Scattered Clouds,0,2013-08-27 21:00:00
4:00 PM,75.2,41.0,29,29.92,30.0,NNW,5.8,-,N/A,,Scattered Clouds,330,2013-08-27 22:00:00
5:00 PM,71.6,42.8,35,29.94,30.0,West,2.3,-,N/A,,Partly Cloudy,280,2013-08-27 23:00:00
6:00 PM,72,45,27,29.95,28,NNW,2.3,,,,Scattered Clouds,340,2013-08-28 00:00:00
6:00 PM,71.6,44.6,38,29.94,30.0,North,2.3,-,N/A,,Partly Cloudy,350,2013-08-28 00:00:00
7:00 PM,69.8,44.6,40,29.95,30.0,North,2.3,-,N/A,,Partly Cloudy,10,2013-08-28 01:00:00
8:00 PM,68.0,50.0,52,29.95,30.0,North,2.3,-,N/A,,Partly Cloudy,350,2013-08-28 02:00:00
9:00 PM,57.2,42.8,59,29.96,15.0,WNW,2.3,-,N/A,,Partly Cloudy,290,2013-08-28 03:00:00
10:00 PM,51.8,41.0,67,29.97,15.0,Calm,Calm,-,N/A,,Partly Cloudy,0,2013-08-28 04:00:00